This is the latest recevied weather packets stored in our database for station/object K8JCL-13. If no packets are shown the sender has not sent any weather packets the latest 10 day(s).
| Time | Temp. | Humidity | Pressure | Rain* | Wind** | Luminosity | Snow |
|---|---|---|---|---|---|---|---|
| 1777849136 | 11.11° C | 74% | 1013.9 hPa | 0 mm | - | 56 W/m² | - |
| 1777848832 | 11.11° C | 74% | 1013.8 hPa | 0 mm | - | 56 W/m² | - |
| 1777848528 | 10.56° C | 74% | 1014.1 hPa | 0 mm | - | 53 W/m² | - |
| 1777848226 | 10.56° C | 74% | 1014.1 hPa | 0 mm | - | 53 W/m² | - |
| 1777847923 | 10.56° C | 75% | 1014.2 hPa | 0 mm | - | 57 W/m² | - |
| 1777847621 | 10.56° C | 77% | 1014.3 hPa | 0 mm | - | 54 W/m² | - |
| 1777847316 | 10.56° C | 77% | 1014.3 hPa | 0 mm | - | 67 W/m² | - |
| 1777847015 | 10.56° C | 78% | 1014.6 hPa | 0 mm | - | 91 W/m² | - |
| 1777846712 | 10.56° C | 80% | 1014.8 hPa | 0 mm | - | 90 W/m² | - |
| 1777846411 | 10.56° C | 79% | 1014.7 hPa | 0 mm | - | 54 W/m² | - |
| 1777846107 | 10.56° C | 78% | 1015 hPa | 0 mm | - | 51 W/m² | - |
| 1777845804 | 10.56° C | 79% | 1014.8 hPa | 0 mm | - | 61 W/m² | - |
| 1777845501 | 10.56° C | 78% | 1014.8 hPa | 0 mm | - | 99 W/m² | - |
| 1777845198 | 10.56° C | 78% | 1014.6 hPa | 0 mm | - | 79 W/m² | - |
| 1777844896 | 11.11° C | 77% | 1014.7 hPa | 0 mm | - | 128 W/m² | - |
| 1777844593 | 10.56° C | 75% | 1014.7 hPa | 0 mm | - | 155 W/m² | - |
| 1777844290 | 10.56° C | 77% | 1015 hPa | 0 mm | - | 114 W/m² | - |
| 1777843987 | 10° C | 80% | 1014.9 hPa | 0 mm | - | 108 W/m² | - |
| 1777843678 | 10° C | 79% | 1014.9 hPa | 0 mm | - | 66 W/m² | - |
| 1777843376 | 10° C | 80% | 1015.1 hPa | 0 mm | - | 31 W/m² | - |
| 1777843074 | 10° C | 77% | 1015.3 hPa | 0 mm | - | 29 W/m² | - |
| 1777842770 | 10° C | 76% | 1015.6 hPa | 0 mm | - | 31 W/m² | - |
| 1777842465 | 10° C | 74% | 1015.6 hPa | 1.27 mm | - | 35 W/m² | - |
| 1777842162 | 10.56° C | 75% | 1015.9 hPa | 1.27 mm | - | 40 W/m² | - |
| 1777841857 | 11.67° C | 70% | 1016.2 hPa | 0 mm | - | 35 W/m² | - |
* Rain latest hour (hover to see other rain measurements)
** Current wind speed in m/s (hover to see current wind gust speed)